User: anonymous   Login
Location: Unspecified
(0.0000°N, 0.0000°E)
Time: 04:07:10
(UTC+00:00)
Language:

WGS F4 (USA 233) - Orbit

View from above orbital plane
View from above orbital plane
View from above satellite
View from above satellite

Ground track
Ground track

The orbit data is extracted from the following two-line orbital elements,

1 38070U 12003A   18016.40637510 0.00000000  00000-0  00000-0 0    09
2 38070   0.0160 350.4937 0003453 185.6136 174.3955  1.00270000    07
Epoch (UTC): 16 January 2018 09:45:10
Eccentricity: 0.0003453
inclination: 0.0160°
perigee height: 35772 km
apogee height: 35801 km
right ascension of ascending node: 350.4937°
argument of perigee: 185.6136°
revolutions per day: 1.00270000
mean anomaly at epoch: 174.3955°
orbit number at epoch: 0

The dashed part of the orbit path shows where the satellite is in the earth's shadow,  

DLR